West Point, VA

9:13 AM EDT on July 20, 2017 (GMT -0400)
West Point

Weather History for KFYJ - January, 2014

Change the Weather History Date:

Tuesday, January 28, 2014

  Actual Average (KJGG) Record (KJGG)
Temperature  
Mean Temperature 23 °F -  
Max Temperature 28 °F 49 °F 72 °F (1954)
Min Temperature 17 °F 26 °F 2 °F (1987)
Degree Days  
Heating Degree Days 42    
Moisture  
Dew Point -1 °F    
Average Humidity 43    
Maximum Humidity 79    
Minimum Humidity 17    
Precipitation  
Precipitation 0.04 in - - ()
Sea Level Pressure  
Sea Level Pressure 30.34 in    
Wind  
Wind Speed 7 mph (North)    
Max Wind Speed 12 mph    
Max Gust Speed 22 mph    
Visibility 8 miles    
Events      
Averages and records for this station are not official NWS values.
T = Trace of Precipitation, MM = Missing Value Source: NWS Daily Summary

Daily Weather History Graph

Daily Weather History Graph

Search for Another Location

Airport or City:

Trip Planner

Search our weather history database for the weather conditions in past years. The results will help you decide how hot, cold, wet, or windy it might be!

Date:

Astronomy

Jan. 28, 2014 Rise Set
Actual Time 7:13 AM EST 5:26 PM EST
Civil Twilight 6:45 AM EST 5:54 PM EST
Nautical Twilight 6:14 AM EST 6:26 PM EST
Astronomical Twilight 5:43 AM EST 6:56 PM EST
Moon 4:52 AM EST (1/28) 3:15 PM EST (1/28)
Length of Visible Light 11h 08m
Length of Day
10h 13m
Waning Crescent, 7% of the Moon is Illuminated
Jan 28
Waning Crescent
Jan 30
New
Feb 6
First Quarter
Feb 14
Full
Feb 22
Last Quarter

Hourly Weather History & Observations

Time (EST) Temp. Windchill Dew Point Humidity Pressure Visibility Wind Dir Wind Speed Gust Speed Precip Events Conditions
12:15 AM 29.7 °F 23.7 °F 3.4 °F 33% 30.18 in 10.0 mi North 5.8 mph - N/A   Clear
12:35 AM 29.3 °F 24.3 °F 3.7 °F 34% 30.19 in 10.0 mi NNW 4.6 mph - N/A   Clear
12:55 AM 29.1 °F 24.1 °F 2.1 °F 32% 30.20 in 10.0 mi North 4.6 mph - N/A   Clear
1:15 AM 28.4 °F 23.3 °F 3.7 °F 35% 30.20 in 10.0 mi North 4.6 mph - N/A   Clear
1:35 AM 28.0 °F 22.8 °F 3.0 °F 34% 30.21 in 10.0 mi North 4.6 mph - N/A   Clear
1:55 AM 27.9 °F 21.5 °F -2.0 °F 28% 30.23 in 10.0 mi North 5.8 mph - N/A   Clear
2:15 AM 27.5 °F 20.2 °F -0.9 °F 29% 30.23 in 10.0 mi NNW 6.9 mph - N/A   Scattered Clouds
2:35 AM 27.5 °F 20.2 °F -2.7 °F 27% 30.24 in 10.0 mi NNW 6.9 mph - N/A   Scattered Clouds
2:55 AM 27.1 °F 18.2 °F -3.1 °F 27% 30.25 in 10.0 mi North 9.2 mph - N/A   Scattered Clouds
3:15 AM 26.6 °F 17.5 °F -4.4 °F 26% 30.26 in 10.0 mi North 9.2 mph 17.3 mph N/A   Mostly Cloudy
3:35 AM 26.4 °F 17.3 °F -2.9 °F 28% 30.27 in 10.0 mi North 9.2 mph - N/A   Mostly Cloudy
3:55 AM 26.4 °F 16.6 °F -1.3 °F 30% 30.29 in 10.0 mi NNW 10.4 mph - N/A   Overcast
4:15 AM 25.5 °F 16.2 °F -4.9 °F 27% 30.29 in 10.0 mi North 9.2 mph 16.1 mph N/A   Mostly Cloudy
4:35 AM 25.2 °F 15.1 °F -4.4 °F 28% 30.30 in 10.0 mi North 10.4 mph 17.3 mph N/A   Scattered Clouds
4:55 AM 24.8 °F 14.0 °F -3.6 °F 29% 30.31 in 10.0 mi NNW 11.5 mph 16.1 mph N/A   Mostly Cloudy
5:15 AM 24.6 °F 16.7 °F -3.8 °F 29% 30.32 in 10.0 mi North 6.9 mph - N/A   Overcast
5:35 AM 24.4 °F 13.5 °F -3.6 °F 29% 30.33 in 10.0 mi North 11.5 mph - N/A   Overcast
5:55 AM 23.7 °F 13.3 °F -5.1 °F 28% 30.34 in 10.0 mi NNW 10.4 mph 16.1 mph N/A   Mostly Cloudy
6:15 AM 23.0 °F 13.1 °F -5.1 °F 29% 30.36 in 10.0 mi North 9.2 mph - N/A   Scattered Clouds
6:35 AM 22.6 °F 11.9 °F -8.0 °F 26% 30.37 in 10.0 mi North 10.4 mph 19.6 mph N/A   Scattered Clouds
6:55 AM 22.1 °F 12.0 °F -8.3 °F 26% 30.38 in 10.0 mi North 9.2 mph - N/A   Scattered Clouds
7:15 AM 21.9 °F 11.0 °F -10.7 °F 23% 30.39 in 10.0 mi North 10.4 mph 16.1 mph N/A   Overcast
7:35 AM 21.9 °F 12.5 °F -9.2 °F 25% 30.41 in 10.0 mi NNW 8.1 mph - N/A   Overcast
7:55 AM 21.6 °F 13.0 °F -10.7 °F 24% 30.42 in 10.0 mi North 6.9 mph 16.1 mph N/A   Overcast
8:15 AM 21.2 °F 10.1 °F -11.9 °F 23% 30.43 in 10.0 mi North 10.4 mph - N/A   Overcast
8:35 AM 20.3 °F 8.3 °F -18.0 °F 18% 30.43 in 10.0 mi North 11.5 mph 21.9 mph N/A   Overcast
8:55 AM 20.8 °F 10.4 °F -18.4 °F 17% 30.43 in 10.0 mi NNW 9.2 mph 17.3 mph N/A   Overcast
9:15 AM 21.0 °F 12.4 °F -16.6 °F 18% 30.43 in 10.0 mi North 6.9 mph - N/A   Overcast
9:35 AM 21.0 °F 10.6 °F -17.0 °F 18% 30.44 in 10.0 mi North 9.2 mph 16.1 mph N/A   Overcast
9:55 AM 21.0 °F 12.4 °F -14.3 °F 20% 30.44 in 10.0 mi North 6.9 mph - N/A   Overcast
10:15 AM 21.2 °F 11.7 °F -12.1 °F 23% 30.45 in 10.0 mi North 8.1 mph - N/A   Overcast
10:35 AM 21.7 °F 13.2 °F -10.1 °F 24% 30.45 in 10.0 mi NNW 6.9 mph - N/A   Scattered Clouds
10:55 AM 21.9 °F 14.5 °F -9.6 °F 25% 30.44 in 10.0 mi NNW 5.8 mph - N/A   Scattered Clouds
11:15 AM 22.1 °F 13.7 °F -9.6 °F 24% 30.43 in 10.0 mi North 6.9 mph - N/A   Overcast
11:35 AM 22.5 °F 14.1 °F -10.7 °F 23% 30.42 in 10.0 mi North 6.9 mph - N/A   Overcast
11:55 AM 22.6 °F 14.3 °F -10.5 °F 23% 30.42 in 10.0 mi North 6.9 mph - N/A   Overcast
12:15 PM 23.0 °F 15.8 °F -9.6 °F 24% 30.41 in 10.0 mi North 5.8 mph - N/A   Overcast
12:35 PM 22.8 °F 14.5 °F -9.2 °F 24% 30.40 in 10.0 mi NNW 6.9 mph - N/A   Overcast
12:55 PM 23.0 °F 13.1 °F -10.7 °F 22% 30.39 in 10.0 mi North 9.2 mph - N/A   Overcast
1:15 PM 23.5 °F 15.4 °F -10.3 °F 22% 30.38 in 10.0 mi North 6.9 mph - N/A   Overcast
1:35 PM 23.7 °F 14.7 °F -12.6 °F 20% 30.37 in 10.0 mi NNE 8.1 mph - N/A   Overcast
1:55 PM 22.3 °F 13.9 °F -10.1 °F 24% 30.37 in 10.0 mi North 6.9 mph - N/A   Overcast
2:15 PM 21.9 °F 12.5 °F -8.9 °F 26% 30.36 in 10.0 mi North 8.1 mph - N/A   Mostly Cloudy
2:35 PM 21.7 °F 15.5 °F -8.0 °F 27% 30.37 in 10.0 mi NNE 4.6 mph - N/A   Overcast
2:55 PM 21.0 °F 13.4 °F -4.5 °F 32% 30.38 in 10.0 mi North 5.8 mph - N/A   Overcast
3:15 PM 20.8 °F 10.4 °F -1.1 °F 38% 30.37 in 10.0 mi North 9.2 mph - N/A   Overcast
3:35 PM 19.8 °F 10.8 °F 3.6 °F 50% 30.37 in 10.0 mi North 6.9 mph - N/A   Overcast
3:55 PM 19.8 °F 13.2 °F 5.2 °F 53% 30.38 in 10.0 mi North 4.6 mph - N/A   Overcast
4:15 PM 19.4 °F 12.8 °F 6.1 °F 56% 30.37 in 7.0 mi North 4.6 mph - N/A   Overcast
4:35 PM 19.2 °F 14.1 °F 7.7 °F 61% 30.37 in 4.0 mi North 3.5 mph - N/A   Overcast
4:55 PM 18.9 °F 12.1 °F 9.3 °F 66% 30.36 in 5.0 mi North 4.6 mph - N/A   Overcast
5:15 PM 18.3 °F 13.1 °F 9.3 °F 68% 30.36 in 5.0 mi North 3.5 mph - N/A   Overcast
5:35 PM 18.1 °F 12.9 °F 10.2 °F 71% 30.35 in 4.0 mi NNW 3.5 mph - N/A   Overcast
5:55 PM 18.0 °F 11.1 °F 10.6 °F 73% 30.36 in 4.0 mi North 4.6 mph - N/A   Overcast
6:15 PM 18.0 °F 12.7 °F 10.4 °F 72% 30.35 in 7.0 mi NNW 3.5 mph - N/A   Overcast
6:35 PM 18.0 °F 12.7 °F 10.8 °F 73% 30.35 in 4.0 mi NNW 3.5 mph - N/A   Overcast
6:55 PM 17.6 °F 12.3 °F 10.8 °F 75% 30.34 in 4.0 mi NNW 3.5 mph - 0.01 in   Mostly Cloudy
7:15 PM 17.4 °F 10.4 °F 10.9 °F 76% 30.34 in 3.0 mi North 4.6 mph - N/A   Unknown
7:35 PM 17.4 °F 12.1 °F 11.1 °F 76% 30.34 in 3.0 mi North 3.5 mph - 0.01 in   Unknown
7:55 PM 17.6 °F 9.3 °F 11.3 °F 76% 30.33 in 3.0 mi North 5.8 mph - 0.01 in   Unknown
8:15 PM 17.6 °F - 11.8 °F 78% 30.33 in 2.0 mi Calm Calm - 0.01 in   Unknown
8:35 PM 17.4 °F 8.0 °F 11.7 °F 78% 30.32 in 2.5 mi North 6.9 mph - 0.01 in   Unknown
8:55 PM 17.4 °F 8.0 °F 11.7 °F 78% 30.32 in 1.5 mi North 6.9 mph - 0.02 in   Unknown
9:15 PM 17.4 °F 10.4 °F 11.8 °F 79% 30.31 in 2.5 mi NNW 4.6 mph - N/A   Overcast
9:35 PM 17.4 °F 9.1 °F 11.7 °F 78% 30.30 in 2.0 mi North 5.8 mph - N/A   Overcast
9:55 PM 17.2 °F 10.2 °F 11.5 °F 78% 30.30 in 2.0 mi North 4.6 mph - N/A   Overcast
10:15 PM 17.2 °F 6.8 °F 11.7 °F 79% 30.29 in 2.5 mi North 8.1 mph - N/A   Overcast
10:35 PM 17.2 °F 10.2 °F 11.3 °F 78% 30.29 in 3.0 mi North 4.6 mph - N/A   Overcast
10:55 PM 17.2 °F 8.9 °F 11.7 °F 79% 30.28 in 2.0 mi NNW 5.8 mph - N/A   Overcast
11:15 PM 17.2 °F 10.2 °F 11.7 °F 79% 30.27 in 2.5 mi NNW 4.6 mph - N/A   Overcast
11:35 PM 17.6 °F 9.3 °F 11.8 °F 78% 30.27 in 4.0 mi North 5.8 mph - N/A   Mostly Cloudy
11:55 PM 17.6 °F 8.2 °F 11.5 °F 77% 30.27 in 10.0 mi NNW 6.9 mph - N/A   Overcast